Flag for Chile Weather past 2 weeks in Santiago, Chile

Now
43 °F

Partly sunny.


Feels Like: 41 °F
Forecast: 50 / 67 °F
Wind: 3 mph from North

Location: Pudahuel

Current Time: Jul 1, 2015 at 9:25:10 AM

Latest Report: Jul 1, 2015 at 9:00 AM


Visibility: 3 mi

Pressure: 30.01 "Hg

Humidity: 49%

Dew point: 25 °F

Location of SantiagoLocation

Historic Weather in Santiago — Graph

°F

Santiago temperature yesterday

Maximum temperature yesterday: 64 °F (at 5:00 PM)
Minimum temperature yesterday: 34 °F (at 10:00 AM)
Average temperature yesterday: 48 °F

Past Weeks' High & Low Weather Summary

 TemperatureHumidityPressure
High75 °F (Jun 19, 3:00 PM)100% (Jun 24, 10:00 AM)30.21 "Hg (Jun 24, 10:00 AM)
Low28 °F (Jun 16, 8:00 AM)8% (Jun 18, 6:00 PM)29.89 "Hg (Jun 23, 6:00 AM)
Average49 °F51%30.03 "Hg
* Reported Jun 16 8:00 AM — Jul 1 8:00 AM, Santiago, Weather by CustomWeather, © 2015

Note: Actual official high and low records may vary slightly from our data, if they occured in-between our weather recording intervals... More about our weather records

Advertising

Santiago weather history for previous 24 hours

 ConditionsComfort  
Time TempWeatherWind HumidityBarometerVisibility
8:00 AM
Wed, Jul 1
43 °FPartly sunny.2 mph57%30.01 "Hg4 mi
7:00 AM41 °FPassing clouds.1 mph57%29.98 "Hg3 mi
6:00 AM41 °FPartly cloudy.1 mph57%29.98 "Hg3 mi
5:00 AM41 °FPartly cloudy.2 mph57%30.01 "Hg3 mi
4:00 AM41 °FPassing clouds.1 mph57%30.01 "Hg3 mi
3:00 AM43 °FPassing clouds.1 mph53%30.01 "Hg4 mi
2:00 AM41 °FPassing clouds.2 mph57%30.04 "Hg4 mi
1:00 AM41 °FPassing clouds.1 mph53%30.04 "Hg4 mi
12:00 AM43 °FPassing clouds.1 mph57%30.04 "Hg4 mi
11:00 PM
Tue, Jun 30
45 °FClear.1 mph49%30.04 "Hg4 mi
10:00 PM48 °FClear.2 mph50%30.04 "Hg4 mi
9:00 PM52 °FPassing clouds.1 mph44%30.04 "Hg5 mi
8:00 PM55 °FPassing clouds.3 mph38%30.01 "Hg5 mi
7:00 PM61 °FPassing clouds.8 mph31%30.01 "Hg4 mi
6:00 PM64 °FPassing clouds.9 mph22%30.01 "Hg5 mi
5:00 PM64 °FScattered clouds.9 mph22%30.01 "Hg5 mi
4:00 PM63 °FScattered clouds.7 mph25%30.01 "Hg5 mi
3:00 PM59 °FPartly sunny.5 mph29%30.01 "Hg5 mi
2:00 PM59 °FPartly sunny.2 mph29%30.04 "Hg5 mi
1:00 PM54 °FPartly sunny.5 mph35%30.07 "Hg5 mi
12:00 PM50 °FPartly sunny.3 mph40%30.09 "Hg4 mi
11:00 AM43 °FScattered clouds.No wind49%30.09 "Hg4 mi
10:00 AM34 °FPartly sunny.3 mph65%30.07 "Hg4 mi
9:00 AM39 °FPartly sunny.No wind56%30.07 "Hg4 mi
Weather by CustomWeather, © 2015

See weather overviewHow to use our weather pages